[[{"header":{"parameterUnit":"m.s-1","parameterCategory":1,"la1":30.2991,"la2":30.254,"lo1":-89.0895,"lo2":-89.0444,"dy":0.0017,"dx":0.0017,"nx":28,"ny":28,"refTime":"2023-11-08T09:00:00:Z","depth":0,"parameterNumber":2,"parameterNumberName":"U-component_of_WINDS"},"data":[0,0,0,0,0,0,0,0,0,0,0,0,0,0,0,0,0,0,0,0,0,0,0,0,0,0,0,0,0,0,0,0,0,0,0,0,0,0,0,0,0,0,0,0,0,0,0,0,0,0,0,0,0,0,0,0,0,0,-1.8808,-1.8808,0,-1.8805,-1.8805,-1.8805,-1.8767,-1.8766,-1.8765,-1.8764,-1.8761,-1.8762,-1.8763,0,0,0,0,0,0,0,0,0,0,0,0,0,-1.8783,-1.8783,-1.8808,-1.8808,-1.8808,-1.8805,-1.8805,-1.8805,-1.8767,-1.8766,-1.8765,-1.8764,-1.8761,-1.8762,-1.8763,0,0,0,0,0,0,0,0,0,0,0,0,0,-1.8788,-1.8784,-1.8808,-1.8789,-1.8787,-1.8805,-1.8805,-1.8805,-1.8767,-1.8766,-1.8765,-1.8763,-1.8761,-1.8762,-1.8763,-1.8799,0,0,-1.8767,-1.8767,0,0,0,0,0,0,0,0,-1.8788,-1.8789,-1.8792,-1.879,-1.8788,-1.8785,-1.8795,-1.8803,-1.8768,-1.8775,-1.8764,-1.8763,-1.877,-1.8771,-1.8773,-1.8799,-1.8799,-1.8767,-1.8768,-1.8768,-1.8769,0,0,0,0,0,0,0,-1.8787,-1.8789,-1.8807,-1.8792,-1.879,-1.8781,-1.878,-1.8796,-1.8781,-1.8774,-1.8771,-1.8772,-1.8769,-1.8772,-1.8773,-1.8799,-1.8767,-1.8768,-1.8769,-1.8769,-1.8854,-1.8856,0,0,0,0,0,0,-1.879,-1.8789,-1.8807,-1.8807,-1.8785,-1.8782,-1.8781,-1.8788,-1.878,-1.8778,-1.8773,-1.877,-1.8771,-1.8772,-1.8773,-1.8814,-1.8768,-1.8769,-1.877,-1.8853,-1.8854,-1.8856,0,0,0,0,0,0,-1.8789,-1.8792,-1.8807,-1.8797,-1.8798,-1.8784,-1.8791,-1.8788,-1.8791,-1.8779,-1.8776,-1.8779,-1.877,-1.8771,-1.8793,-1.8813,-1.877,-1.8771,-1.8851,-1.8853,-1.8855,-1.8897,0,0,0,0,0,0,-1.8789,-1.8792,-1.8805,-1.8798,-1.8799,-1.8827,-1.8793,-1.8789,-1.8793,-1.8789,-1.8784,-1.8782,-1.8769,-1.8791,-1.8794,-1.8814,-1.8772,-1.8849,-1.8852,-1.8855,-1.8894,-1.89,-1.8906,0,0,0,0,0,-1.8788,-1.8817,-1.8806,-1.8808,-1.8815,-1.8828,-1.8829,-1.8813,-1.8795,-1.8808,-1.8801,-1.8782,-1.8811,-1.8794,-1.8797,-1.8817,-1.8847,-1.8851,-1.8854,-1.8891,-1.8899,-1.8906,0,0,0,0,0,0,-1.8827,-1.8816,-1.8803,-1.8831,-1.8831,-1.8822,-1.8838,-1.8823,-1.8828,-1.8824,-1.8804,-1.8804,-1.8828,-1.8825,-1.8806,-1.8852,-1.8826,-1.883,-1.8853,-1.886,-1.8866,-1.8866,-1.8773,0,0,0,0,0,-1.8839,-1.885,-1.884,-1.8865,-1.8866,-1.8852,-1.8857,-1.8845,-1.8845,-1.8844,-1.8839,-1.8839,-1.8848,-1.8854,-1.8862,-1.8894,-1.8892,-1.8909,-1.8916,-1.8921,-1.8924,-1.894,-1.8948,-1.8867,-1.8867,-1.8867,0,0,-1.8863,-1.8859,-1.8867,-1.8873,-1.8872,-1.8884,-1.8852,-1.8867,-1.8876,-1.8847,-1.8866,-1.8863,-1.8862,-1.8888,-1.89,-1.8887,-1.8946,-1.8925,-1.8929,-1.893,-1.8945,-1.8952,-1.8959,-1.887,-1.8869,-1.8869,0,0,-1.8914,-1.8912,-1.8932,-1.8932,-1.893,-1.8921,-1.8926,-1.892,-1.8916,-1.8936,-1.8914,-1.8925,-1.8941,-1.8941,-1.8943,-1.8995,-1.8978,-1.8999,-1.903,-1.9046,-1.9053,-1.9058,-1.9076,-1.9082,-1.9002,-1.9002,-1.9002,0,-1.8944,-1.8962,-1.8945,-1.8961,-1.8964,-1.8939,-1.8959,-1.896,-1.8961,-1.8964,-1.8949,-1.8969,-1.8966,-1.8993,-1.9005,-1.9008,-1.9013,-1.8998,-1.9053,-1.9058,-1.9063,-1.908,-1.9087,-1.9005,-1.9005,-1.9004,-1.9004,0,-1.8999,-1.9012,-1.9029,-1.903,-1.9035,-1.9054,-1.904,-1.9047,-1.9035,-1.9028,-1.9049,-1.9045,-1.9051,-1.9057,-1.9046,-1.9082,-1.9074,-1.9057,-1.903,-1.9074,-1.9089,-1.9095,-1.9008,-1.9007,-1.9007,-1.9006,0,0,-1.9073,-1.9065,-1.9072,-1.9072,-1.9069,-1.9078,-1.9096,-1.9102,-1.9109,-1.9111,-1.9124,-1.9139,-1.9123,-1.9126,-1.9114,-1.9129,-1.9169,-1.911,-1.9109,-1.912,-1.9208,-1.922,-1.9228,-1.9158,-1.9159,-1.916,-1.9208,0,-1.9121,-1.9149,-1.9135,-1.9165,-1.9177,-1.9153,-1.9168,-1.9168,-1.9162,-1.9171,-1.9164,-1.9175,-1.9154,-1.9155,-1.9168,-1.9161,-1.9186,-1.9158,-1.917,-1.9171,-1.917,-1.9236,-1.9248,-1.9293,-1.9214,-1.9215,-1.9215,0,-1.918,-1.9184,-1.9216,-1.921,-1.9215,-1.9228,-1.9233,-1.9242,-1.9242,-1.9236,-1.924,-1.9225,-1.9242,-1.9216,-1.9239,-1.922,-1.9225,-1.9223,-1.9224,-1.9223,-1.9195,-1.9236,-1.9307,-1.9314,-1.9225,-1.9224,-1.9223,0,-1.9229,-1.9243,-1.9264,-1.9265,-1.926,-1.927,-1.9268,-1.9266,-1.9271,-1.9275,-1.9278,-1.9285,-1.9288,-1.9294,-1.9281,-1.9264,-1.9306,-1.928,-1.9301,-1.9302,-1.931,-1.9309,-1.9382,-1.9315,-1.9315,-1.9315,-1.9315,0,-1.9283,-1.9303,-1.9286,-1.9298,-1.932,-1.9304,-1.9326,-1.9322,-1.9321,-1.9332,-1.9313,-1.9324,-1.9307,-1.9317,-1.9308,-1.9328,-1.933,-1.9326,-1.9323,-1.9327,-1.9327,-1.9328,-1.9324,-1.9317,-1.9316,-1.9316,-1.9316,0,-1.9341,-1.933,-1.9351,-1.9345,-1.9344,-1.936,-1.9354,-1.9366,-1.9359,-1.9373,-1.9376,-1.9365,-1.9375,-1.9364,-1.9374,-1.9367,-1.9394,-1.9387,-1.9394,-1.9391,-1.9413,-1.9411,-1.9488,-1.9497,-1.9426,-1.9427,-1.9427,0,-1.9376,-1.9391,-1.9386,-1.9392,-1.9391,-1.9402,-1.9406,-1.9392,-1.9398,-1.9398,-1.941,-1.9419,-1.9425,-1.9443,-1.9435,-1.9443,-1.9435,-1.9462,-1.9436,-1.944,-1.9434,-1.9433,-1.9434,-1.9467,-1.9467,-1.9468,-1.9469,0,-1.9438,-1.9432,-1.944,-1.9445,-1.9451,-1.9455,-1.9458,-1.9464,-1.9449,-1.9456,-1.9467,-1.9471,-1.9481,-1.949,-1.9496,-1.9494,-1.9479,-1.9477,-1.9482,-1.9486,-1.9489,-1.9486,-1.9407,-1.9475,-1.9474,-1.9474,-1.9474,-1.9473,-1.9485,-1.9497,-1.9495,-1.9504,-1.9504,-1.9507,-1.9517,-1.9512,-1.952,-1.9527,-1.9518,-1.9531,-1.953,-1.9536,-1.9536,-1.9546,-1.9535,-1.9543,-1.9544,-1.9546,-1.9549,-1.9488,-1.9547,-1.9547,-1.9547,-1.9547,-1.9547,0,-1.9545,-1.9543,-1.9552,-1.9556,-1.9563,-1.9548,-1.955,-1.9557,-1.9568,-1.9569,-1.9576,-1.9588,-1.9596,-1.9591,-1.9598,-1.9607,-1.96,-1.9609,-1.9608,-1.9607,-1.9559,-1.9553,-1.9615,-1.9614,-1.9614,-1.9614,-1.9614,-1.9614,-1.9577,-1.9596,-1.959,-1.961,-1.9608,-1.962,-1.9622,-1.9625,-1.9625,-1.9639,-1.9646,-1.9642,-1.964,-1.9648,-1.9655,-1.9653,-1.9656,-1.9668,-1.9663,-1.9618,-1.9611,-1.9605,-1.9599,-1.9669,-1.9669,-1.971,-1.9711,-1.9711]},{"header":{"parameterUnit":"m.s-1","parameterCategory":1,"la1":30.2991,"la2":30.254,"lo1":-89.0895,"lo2":-89.0444,"dy":0.0017,"dx":0.0017,"nx":28,"ny":28,"refTime":"2023-11-08T09:00:00:Z","depth":0,"parameterNumber":3,"parameterNumberName":"V-component_of_WINDS"},"data":[0,0,0,0,0,0,0,0,0,0,0,0,0,0,0,0,0,0,0,0,0,0,0,0,0,0,0,0,0,0,0,0,0,0,0,0,0,0,0,0,0,0,0,0,0,0,0,0,0,0,0,0,0,0,0,0,0,0,0.8167,0.8167,0,0.8141,0.814,0.814,0.8141,0.8142,0.8142,0.8143,0.8112,0.811,0.8109,0,0,0,0,0,0,0,0,0,0,0,0,0,0.8217,0.8217,0.8167,0.8167,0.8167,0.8141,0.814,0.814,0.8141,0.8142,0.8142,0.8143,0.8112,0.811,0.8109,0,0,0,0,0,0,0,0,0,0,0,0,0,0.8194,0.8216,0.8168,0.8164,0.8164,0.8141,0.814,0.814,0.8141,0.8142,0.8142,0.8143,0.8112,0.8111,0.8109,0.8086,0,0,0.8103,0.8103,0,0,0,0,0,0,0,0,0.8195,0.8192,0.8165,0.8165,0.8164,0.8145,0.8147,0.8122,0.8141,0.815,0.8143,0.8143,0.8122,0.8119,0.8113,0.8084,0.8083,0.8103,0.8102,0.8101,0.8101,0,0,0,0,0,0,0,0.8197,0.8193,0.8157,0.8165,0.8164,0.8164,0.8161,0.8142,0.8133,0.8149,0.8149,0.8146,0.8122,0.8115,0.8112,0.8083,0.8103,0.8102,0.8101,0.81,0.8035,0.8034,0,0,0,0,0,0,0.8199,0.8194,0.8158,0.8156,0.8181,0.8162,0.8159,0.815,0.8133,0.8131,0.8146,0.8146,0.8117,0.8114,0.8111,0.8084,0.8101,0.81,0.8099,0.8036,0.8035,0.8034,0,0,0,0,0,0,0.82,0.8196,0.8159,0.8175,0.817,0.8161,0.8151,0.815,0.8143,0.813,0.8128,0.814,0.8118,0.8114,0.8093,0.8083,0.8099,0.8097,0.8036,0.8035,0.8035,0.8029,0,0,0,0,0,0,0.8202,0.8196,0.8188,0.8175,0.817,0.8141,0.815,0.8149,0.814,0.8141,0.8125,0.8123,0.8118,0.8095,0.8091,0.8081,0.8096,0.8037,0.8036,0.8035,0.803,0.8028,0.8026,0,0,0,0,0,0.8204,0.8187,0.8188,0.8183,0.8159,0.8141,0.8138,0.8133,0.8139,0.813,0.8123,0.8123,0.8085,0.8093,0.8088,0.8077,0.8038,0.8036,0.8035,0.8031,0.8028,0.8026,0,0,0,0,0,0,0.8197,0.8185,0.8186,0.8164,0.8154,0.8141,0.813,0.8131,0.8117,0.8118,0.8112,0.8109,0.8088,0.808,0.809,0.8055,0.8062,0.8059,0.806,0.8058,0.8056,0.8058,0.8094,0,0,0,0,0,0.8194,0.8181,0.817,0.8152,0.8147,0.8139,0.8131,0.8129,0.8117,0.8113,0.8103,0.8091,0.8077,0.8067,0.8052,0.8029,0.8026,0.8019,0.8017,0.8016,0.8013,0.8001,0.7998,0.8029,0.8029,0.8029,0,0,0.8185,0.8177,0.8169,0.8151,0.8142,0.8129,0.8136,0.812,0.811,0.811,0.809,0.8083,0.8069,0.8047,0.8037,0.804,0.8004,0.8014,0.8013,0.8011,0.7999,0.7996,0.7994,0.8028,0.8029,0.8029,0,0,0.8164,0.8156,0.8141,0.8133,0.812,0.8116,0.8112,0.81,0.8095,0.8076,0.8076,0.8063,0.8037,0.8028,0.8019,0.7996,0.7996,0.7991,0.7981,0.7969,0.7967,0.7964,0.7956,0.7954,0.7989,0.7989,0.7989,0,0.8154,0.8135,0.8132,0.8118,0.811,0.8111,0.8095,0.8087,0.807,0.8064,0.8068,0.8037,0.8028,0.8004,0.7999,0.7992,0.7987,0.7993,0.7967,0.7965,0.7963,0.7955,0.7952,0.7988,0.7988,0.7988,0.7988,0,0.8125,0.8111,0.81,0.8086,0.8076,0.8061,0.8056,0.8046,0.8045,0.804,0.802,0.8009,0.7993,0.7987,0.7985,0.7964,0.7966,0.7969,0.7976,0.796,0.7952,0.7949,0.7988,0.7988,0.7988,0.7988,0,0,0.8097,0.8083,0.8079,0.8073,0.806,0.8049,0.8034,0.802,0.8012,0.8001,0.7988,0.7967,0.797,0.7961,0.7958,0.7948,0.793,0.7952,0.7951,0.7949,0.7906,0.7905,0.7901,0.793,0.793,0.7929,0.7908,0,0.8075,0.8049,0.8047,0.8024,0.8012,0.8013,0.8,0.799,0.7985,0.7973,0.7967,0.7953,0.7957,0.7952,0.7942,0.7935,0.7922,0.7936,0.7918,0.7917,0.7922,0.7897,0.7895,0.7875,0.7905,0.7904,0.7904,0,0.8044,0.8034,0.801,0.8001,0.7995,0.7984,0.7971,0.796,0.7949,0.7946,0.7937,0.7935,0.7919,0.7928,0.7905,0.7915,0.7908,0.7903,0.7902,0.79,0.791,0.7895,0.7868,0.7866,0.7899,0.7899,0.79,0,0.8028,0.8008,0.7991,0.7986,0.7974,0.7966,0.796,0.795,0.7942,0.7931,0.7926,0.7912,0.7904,0.7894,0.7889,0.7895,0.7867,0.7874,0.7864,0.7864,0.7858,0.7858,0.783,0.7852,0.7852,0.7853,0.7853,0,0.8003,0.7988,0.7984,0.7974,0.7957,0.7955,0.7939,0.7933,0.7925,0.7913,0.7913,0.7901,0.7896,0.7883,0.7879,0.7862,0.7858,0.7855,0.7854,0.7855,0.7856,0.785,0.7852,0.7852,0.7852,0.7852,0.7852,0,0.7981,0.7978,0.796,0.7951,0.7948,0.7937,0.7928,0.7918,0.7914,0.7899,0.7896,0.7888,0.7874,0.7868,0.785,0.7848,0.7828,0.7828,0.7832,0.7832,0.7822,0.7823,0.7789,0.7785,0.781,0.781,0.7809,0,0.7966,0.7955,0.7945,0.7938,0.7933,0.7921,0.7914,0.7911,0.7902,0.789,0.7882,0.7868,0.7857,0.7834,0.7827,0.7813,0.7813,0.7802,0.7811,0.7813,0.7813,0.7814,0.7813,0.78,0.78,0.78,0.78,0,0.7938,0.7938,0.7927,0.7917,0.7908,0.7899,0.789,0.7884,0.788,0.7871,0.7857,0.7849,0.7832,0.7818,0.7805,0.7798,0.7798,0.7797,0.7794,0.7795,0.7798,0.7797,0.7828,0.7798,0.7798,0.7798,0.7798,0.7798,0.792,0.7911,0.7903,0.7892,0.7885,0.7877,0.7868,0.7863,0.7852,0.7839,0.7838,0.7823,0.7813,0.7795,0.7788,0.7777,0.7779,0.7775,0.7773,0.7772,0.7772,0.78,0.7774,0.7774,0.7774,0.7774,0.7774,0,0.7893,0.7888,0.7878,0.7867,0.7858,0.7861,0.7851,0.7844,0.7831,0.7823,0.7813,0.7797,0.7785,0.7777,0.7764,0.7756,0.7756,0.7752,0.7753,0.7752,0.777,0.7774,0.7753,0.7753,0.7753,0.7753,0.7753,0.7753,0.7878,0.7863,0.7862,0.7844,0.7839,0.7826,0.7821,0.7813,0.7807,0.779,0.778,0.7776,0.7767,0.7754,0.7742,0.774,0.7736,0.7732,0.7731,0.7748,0.775,0.7752,0.7756,0.7731,0.7731,0.7713,0.7713,0.7713]}]]